Regional Weather Roundup
Issued by NWS Sioux Falls, SD

Home | Current Version | Previous Version | Graphics & Text | Print | Product List | Glossary On
Versions: 1 2 3 4 5 6 7 8 9 10 11 12 13 14 15 16 17 18 19 20 21 22 23 24 25 26 27 28 29 30 31 32 33 34 35 36 37 38 39 40 41 42 43 44 45 46 47 48 49 50
000
ASUS43 KFSD 210910
RWRFSD

WEATHER ROUNDUP FOR SE SOUTH DAKOTA/SW MINNESOTA/NW IOWA
NATIONAL WEATHER SERVICE SIOUX FALLS SD
400 AM CDT THU AUG 21 2014

NOTE: "FAIR" INDICATES FEW OR NO CLOUDS BELOW 12,000 FEET WITH NO
SIGNIFICANT WEATHER AND OR OBSTRUCTIONS TO VISIBILITY.


SDZ038>040-050-052>070-211000-
SOUTHEAST SOUTH DAKOTA

CITY           SKY/WX    TMP DP  RH WIND       PRES   REMARKS
CHAMBERLAIN    MOCLDY    71  71  99 NW6       29.69R FOG
HURON          MOCLDY    70  66  87 E10       29.66F
MADISON        FAIR      72  72 100 S3        29.69F
MITCHELL       CLEAR     74  72  93 CALM      29.66R
SIOUX FALLS    PTCLDY    76  69  79 S10       29.68S
WINNER         FAIR      71  62  73 W10       29.73S
YANKTON        PTCLDY    75  72  88 S7        29.67F
$$

MNZ071-072-080-081-089-090-097-098-211000-
SOUTHWEST MINNESOTA

CITY           SKY/WX    TMP DP  RH WIND       PRES   REMARKS
FAIRMONT       CLOUDY    72  66  83 MISG      29.72F
JACKSON        CLOUDY    73  70  88 CALM      29.73S
LUVERNE        PTCLDY    73  68  83 SW5       29.68F
MARSHALL       MOCLDY    70  64  83 SE15      29.69R
MONTEVIDEO     CLOUDY    72  70  94 NE17      29.75R
PIPESTONE      PTCLDY    73  70  88 SE7       29.71F
REDWOOD FALLS  LGT RAIN  71  69  93 SE14      29.70F
TRACY          MOCLDY    71  69  94 SE13G18   29.72S
WINDOM         TSTM      70  68  94 CALM      29.78R
WORTHINGTON    CLOUDY    73  14  10 NE5       29.75R THUNDER
$$

IAZ001>003-012>014-020>022-031-032-NEZ013-014-SDZ071-211000-
NORTHWEST IOWA

CITY           SKY/WX    TMP DP  RH WIND       PRES   REMARKS
CHEROKEE       CLOUDY    76  73  91 S15G22    29.72F
DENISON        CLOUDY    77  72  83 S9G16     29.77R
ESTHERVILLE    CLOUDY    72  71  97 S16G30    29.69F
LE MARS        MOCLDY    77  72  83 S14G21    29.70F
ORANGE CITY    CLOUDY    79  72  78 S12       29.70F
SHELDON        CLOUDY    75  73  94 S14G22    29.69F
SIOUX CITY     MOCLDY    78  72  81 S7        29.71S
SPENCER        PTCLDY    75  71  87 S20G25    29.68F
STORM LAKE     MOCLDY    75  75 100 S14       29.76F
$$

ABBREVIATIONS USED IN REMARKS
   TC - TEMPERATURE IN CELSIUS
  WCI - WIND CHILL INDEX
   HX - HEAT INDEX
  VSB - VISIBILITY




USA.gov is the U.S. government's official web portal to all federal, state and local government web resources and services.